When you browse on this site, cookies collect data to enhance your experience and personalize the content and advertising you see.
Visit our Privacy Policy to learn more. By continuing to use the site, you agree to this use of cookies and data.
  • En España
  • Lista de países
  • Para 7 días
  • Temperatura del agua
  • Mapa Satelital
  • El tiempo en el mapa
  • Informadores
  • user-avatar
    Iniciar sesión

    Tiempo cada hora Darwin

    Hoy, 23 Abril, Martes

    Tiempo Temperatura Precipitaciones Viento Presión Humedad
    00:00 +28°C° 0 mm 2 mps 758 mmHg 58%
    01:00 +28°C° 0 mm 2 mps 758 mmHg 61%
    02:00 +27°C° 0 mm 3 mps 758 mmHg 63%
    03:00 +27°C° 0 mm 3 mps 757 mmHg 65%
    04:00 +27°C° 0.1 mm 3 mps 758 mmHg 67%
    05:00 +27°C° 0.1 mm 4 mps 758 mmHg 68%
    06:00 +27°C° 0.1 mm 4 mps 758 mmHg 70%
    07:00 +28°C° 0 mm 4 mps 758 mmHg 66%
    08:00 +29°C° 0 mm 5 mps 758 mmHg 63%
    09:00 +30°C° 0 mm 5 mps 759 mmHg 60%
    10:00 +33°C° 0 mm 5 mps 758 mmHg 52%
    11:00 +35°C° 0 mm 6 mps 758 mmHg 45%
    12:00 +38°C° 0 mm 6 mps 758 mmHg 37%
    13:00 +37°C° 0 mm 5 mps 757 mmHg 37%
    14:00 +37°C° 0 mm 5 mps 757 mmHg 37%
    15:00 +38°C° 0 mm 4 mps 756 mmHg 37%
    16:00 +36°C° 0 mm 4 mps 756 mmHg 43%
    17:00 +35°C° 0 mm 3 mps 756 mmHg 49%
    18:00 +33°C° 0 mm 3 mps 756 mmHg 54%
    19:00 +31°C° 0 mm 3 mps 757 mmHg 56%
    20:00 +31°C° 0 mm 2 mps 757 mmHg 57%
    21:00 +30°C° 0 mm 2 mps 758 mmHg 59%
    22:00 +30°C° 0.1 mm 2 mps 758 mmHg 61%
    23:00 +29°C° 0.1 mm 2 mps 758 mmHg 62%

    Mañana, 24 Abril, Miércoles

    Tiempo Temperatura Precipitaciones Viento Presión Humedad
    00:00 +29°C° 0.1 mm 2 mps 758 mmHg 64%
    01:00 +29°C° 0 mm 3 mps 758 mmHg 65%
    02:00 +28°C° 0 mm 3 mps 758 mmHg 67%
    03:00 +28°C° 0 mm 4 mps 757 mmHg 68%
    04:00 +27°C° 0 mm 4 mps 758 mmHg 69%
    05:00 +27°C° 0 mm 4 mps 758 mmHg 70%
    06:00 +27°C° 0 mm 5 mps 758 mmHg 71%
    07:00 +28°C° 0 mm 5 mps 758 mmHg 65%
    08:00 +30°C° 0 mm 6 mps 758 mmHg 59%
    09:00 +33°C° 0 mm 6 mps 759 mmHg 53%
    10:00 +34°C° 0 mm 6 mps 758 mmHg 48%
    11:00 +36°C° 0 mm 6 mps 758 mmHg 44%
    12:00 +38°C° 0 mm 6 mps 758 mmHg 39%
    13:00 +39°C° 0 mm 5 mps 757 mmHg 38%
    14:00 +39°C° 0 mm 5 mps 756 mmHg 38%
    15:00 +38°C° 0 mm 4 mps 756 mmHg 37%
    16:00 +37°C° 0 mm 4 mps 756 mmHg 42%
    17:00 +35°C° 0 mm 3 mps 756 mmHg 47%
    18:00 +34°C° 0 mm 3 mps 756 mmHg 52%
    19:00 +33°C° 0 mm 3 mps 757 mmHg 54%
    20:00 +33°C° 0 mm 3 mps 757 mmHg 55%
    21:00 +33°C° 0 mm 3 mps 758 mmHg 57%
    22:00 +31°C° 0 mm 3 mps 758 mmHg 59%
    23:00 +30°C° 0 mm 3 mps 758 mmHg 62%

    Pasado mañana, 25 Abril, Jueves

    Tiempo Temperatura Precipitaciones Viento Presión Humedad
    00:00 +29°C° 0 mm 3 mps 758 mmHg 65%
    01:00 +29°C° 0 mm 3 mps 757 mmHg 65%
    02:00 +28°C° 0 mm 3 mps 757 mmHg 66%
    03:00 +28°C° 0 mm 4 mps 756 mmHg 67%
    04:00 +27°C° 0 mm 4 mps 756 mmHg 68%
    05:00 +27°C° 0 mm 3 mps 756 mmHg 69%
    06:00 +27°C° 0 mm 3 mps 756 mmHg 70%
    07:00 +28°C° 0 mm 4 mps 757 mmHg 64%
    08:00 +30°C° 0 mm 5 mps 757 mmHg 58%
    09:00 +32°C° 0 mm 6 mps 758 mmHg 52%
    10:00 +34°C° 0 mm 5 mps 757 mmHg 48%
    11:00 +35°C° 0 mm 5 mps 757 mmHg 44%
    12:00 +37°C° 0 mm 5 mps 756 mmHg 40%
    13:00 +37°C° 0 mm 5 mps 756 mmHg 39%
    14:00 +38°C° 0 mm 4 mps 755 mmHg 39%
    15:00 +38°C° 0 mm 3 mps 754 mmHg 38%
    16:00 +37°C° 0 mm 3 mps 754 mmHg 43%
    17:00 +35°C° 0 mm 2 mps 755 mmHg 48%
    18:00 +34°C° 0 mm 2 mps 755 mmHg 54%
    19:00 +32°C° 0 mm 1 mps 756 mmHg 54%
    20:00 +32°C° 0 mm 1 mps 756 mmHg 55%
    21:00 +32°C° 0 mm 1 mps 757 mmHg 56%
    22:00 +31°C° 0 mm 1 mps 757 mmHg 57%
    23:00 +30°C° 0 mm 1 mps 757 mmHg 59%

    26 Abril, Viernes

    Tiempo Temperatura Precipitaciones Viento Presión Humedad
    00:00 +30°C° 0 mm 1 mps 757 mmHg 60%
    01:00 +29°C° 0 mm 1 mps 756 mmHg 63%
    02:00 +28°C° 0 mm 1 mps 756 mmHg 66%
    03:00 +28°C° 0 mm 1 mps 755 mmHg 70%
    04:00 +27°C° 0 mm 1 mps 756 mmHg 71%
    05:00 +27°C° 0 mm 2 mps 756 mmHg 73%
    06:00 +27°C° 0 mm 2 mps 756 mmHg 74%
    07:00 +28°C° 0 mm 3 mps 757 mmHg 69%
    08:00 +30°C° 0 mm 4 mps 757 mmHg 64%
    09:00 +32°C° 0 mm 4 mps 758 mmHg 59%
    10:00 +34°C° 0 mm 4 mps 757 mmHg 52%
    11:00 +36°C° 0 mm 4 mps 757 mmHg 45%
    12:00 +37°C° 0 mm 4 mps 756 mmHg 39%
    13:00 +38°C° 0 mm 4 mps 755 mmHg 39%
    14:00 +38°C° 0 mm 4 mps 755 mmHg 39%
    15:00 +38°C° 0 mm 4 mps 754 mmHg 39%
    16:00 +36°C° 0 mm 4 mps 754 mmHg 46%
    17:00 +35°C° 0 mm 4 mps 755 mmHg 52%
    18:00 +33°C° 0 mm 4 mps 755 mmHg 59%
    19:00 +31°C° 0 mm 3 mps 755 mmHg 61%
    20:00 +31°C° 0 mm 3 mps 756 mmHg 63%
    21:00 +30°C° 0 mm 2 mps 757 mmHg 65%
    22:00 +29°C° 0 mm 2 mps 757 mmHg 68%
    23:00 +29°C° 0 mm 2 mps 757 mmHg 71%

    27 Abril, Sábado

    Tiempo Temperatura Precipitaciones Viento Presión Humedad
    00:00 +29°C° 0 mm 2 mps 757 mmHg 74%
    01:00 +28°C° 0.3 mm 2 mps 756 mmHg 75%
    02:00 +28°C° 0.3 mm 2 mps 756 mmHg 76%
    03:00 +28°C° 0.3 mm 3 mps 756 mmHg 77%
    04:00 +28°C° 1.5 mm 3 mps 756 mmHg 78%
    05:00 +28°C° 1.5 mm 3 mps 757 mmHg 78%
    06:00 +27°C° 1.5 mm 3 mps 757 mmHg 78%
    07:00 +29°C° 0.3 mm 3 mps 757 mmHg 72%
    08:00 +30°C° 0.3 mm 4 mps 758 mmHg 66%
    09:00 +32°C° 0.3 mm 4 mps 758 mmHg 60%
    10:00 +34°C° 0 mm 4 mps 758 mmHg 54%
    11:00 +35°C° 0 mm 4 mps 757 mmHg 48%
    12:00 +37°C° 0 mm 3 mps 757 mmHg 41%
    13:00 +37°C° 0 mm 3 mps 756 mmHg 40%
    14:00 +38°C° 0 mm 4 mps 756 mmHg 39%
    15:00 +38°C° 0 mm 4 mps 755 mmHg 37%
    16:00 +36°C° 0 mm 4 mps 755 mmHg 44%
    17:00 +35°C° 0 mm 3 mps 756 mmHg 50%
    18:00 +33°C° 0 mm 3 mps 756 mmHg 57%
    19:00 +33°C° 0 mm 3 mps 757 mmHg 59%
    20:00 +31°C° 0 mm 3 mps 757 mmHg 62%
    21:00 +31°C° 0 mm 3 mps 758 mmHg 64%
    22:00 +30°C° 1.8 mm 4 mps 758 mmHg 70%
    23:00 +29°C° 1.8 mm 4 mps 757 mmHg 76%

    28 Abril, Domingo

    Tiempo Temperatura Precipitaciones Viento Presión Humedad
    00:00 +28°C° 1.8 mm 4 mps 757 mmHg 82%
    01:00 +28°C° 0.5 mm 4 mps 757 mmHg 82%
    02:00 +27°C° 0.5 mm 4 mps 757 mmHg 83%
    03:00 +27°C° 0.5 mm 4 mps 757 mmHg 83%
    04:00 +27°C° 0.1 mm 4 mps 757 mmHg 84%
    05:00 +27°C° 0.1 mm 4 mps 757 mmHg 85%
    06:00 +26°C° 0.1 mm 5 mps 757 mmHg 86%
    07:00 +27°C° 0 mm 5 mps 758 mmHg 80%
    08:00 +29°C° 0 mm 5 mps 758 mmHg 74%
    09:00 +30°C° 0 mm 5 mps 758 mmHg 68%
    10:00 +33°C° 0 mm 5 mps 758 mmHg 60%
    11:00 +35°C° 0 mm 5 mps 757 mmHg 52%
    12:00 +37°C° 0 mm 5 mps 757 mmHg 43%
    13:00 +37°C° 0 mm 4 mps 756 mmHg 43%
    14:00 +37°C° 0 mm 4 mps 756 mmHg 42%
    15:00 +38°C° 0 mm 4 mps 755 mmHg 41%
    16:00 +36°C° 0 mm 3 mps 756 mmHg 46%
    17:00 +35°C° 0 mm 3 mps 756 mmHg 52%
    18:00 +34°C° 0 mm 2 mps 757 mmHg 57%
    19:00 +33°C° 0.5 mm 3 mps 757 mmHg 62%
    20:00 +32°C° 0.5 mm 4 mps 757 mmHg 67%
    21:00 +30°C° 0.5 mm 5 mps 758 mmHg 72%
    22:00 +29°C° 1 mm 5 mps 758 mmHg 75%
    23:00 +29°C° 1 mm 5 mps 758 mmHg 78%
    Mostrar más